GW5532 Weather Reports


time (UTC)temp
C
wind
direction
speed
KPH
gust
KPH
rain 1hr
cm
rain 24hr
cm
rain mn
cm
humidity
%
barometer
mb
20260506092512 9 15 6.4 14.5 0.00 0.00 0.00 72 1014.1
20260506092010 9 60 6.4 14.5 0.00 0.00 0.00 71 1014.3
20260506091530 9 328 3.2 14.5 0.00 0.00 0.00 71 1014.2
20260506091010 9 9 4.8 16.1 0.00 0.00 0.00 71 1014.2
20260506090510 9 65 4.8 16.1 0.00 0.00 0.00 71 1013.9
20260506090027 9 11 4.8 24.1 0.00 0.00 0.00 71 1013.9
20260506085509 9 24 9.7 24.1 0.00 0.00 0.00 70 1013.7
20260506085006 9 17 6.4 20.9 0.00 0.00 0.00 70 1013.4
20260506084528 9 340 4.8 19.3 0.00 0.00 0.00 70 1013.6
20260506084010 9 5 4.8 16.1 0.00 0.00 0.00 70 1013.6
20260506083509 9 9 3.2 20.9 0.00 0.00 0.00 70 1013.7
20260506083019 9 99 3.2 20.9 0.00 0.00 0.00 70 1013.7
20260506082507 9 16 4.8 16.1 0.00 0.00 0.00 70 1013.5
20260506082007 9 348 4.8 16.1 0.00 0.00 0.00 69 1013.2
20260506081528 9 349 3.2 12.9 0.00 0.00 0.00 69 1012.9
20260506081010 9 342 4.8 14.5 0.00 0.00 0.00 69 1012.8
20260506080507 9 11 4.8 16.1 0.00 0.00 0.00 68 1012.5
20260506073510 9 352 6.4 20.9 0.00 0.00 0.00 66 1011.8
20260506073020 9 351 6.4 27.4 0.00 0.00 0.00 65 1012.0
20260506072507 9 58 11.3 27.4 0.00 0.00 0.00 65 1012.1
20260506072008 9 349 8.0 17.7 0.00 0.00 0.00 65 1012.1
20260506071526 9 69 8.0 22.5 0.00 0.00 0.00 65 1012.0
20260506071008 9 348 6.4 22.5 0.00 0.00 0.00 65 1012.3
20260506070504 9 19 6.4 20.9 0.00 0.00 0.00 65 1012.3
20260506062508 9 313 4.8 19.3 0.00 0.00 0.00 69 1012.3
20260506062017 9 352 4.8 14.5 0.00 0.00 0.00 69 1012.4
20260506061534 9 57 6.4 17.7 0.00 0.00 0.00 70 1012.3
20260506061011 9 32 4.8 17.7 0.00 0.00 0.00 71 1012.5
20260506060508 9 61 3.2 16.1 0.00 0.00 0.00 72 1012.4
20260506051013 9 44 8.0 20.9 0.00 0.00 0.00 75 1012.2
20260506050504 9 339 8.0 20.9 0.00 0.00 0.00 75 1012.5
20260506045007 9 51 4.8 17.7 0.00 0.00 0.00 76 1012.7
20260506044520 9 91 6.4 20.9 0.00 0.00 0.00 76 1012.5
20260506044013 9 33 6.4 20.9 0.00 0.00 0.00 77 1012.5
20260506043511 9 346 6.4 16.1 0.00 0.00 0.00 78 1012.4
20260506043025 9 5 4.8 14.5 0.00 0.00 0.00 79 1012.4
20260506042507 9 342 4.8 14.5 0.00 0.00 0.00 79 1012.5
20260506042012 9 5 6.4 17.7 0.00 0.00 0.00 80 1012.5
20260506041524 9 46 6.4 16.1 0.00 0.00 0.00 80 1012.5
20260506041003 9 35 6.4 14.5 0.00 0.00 0.00 80 1012.5
20260506040508 9 19 4.8 16.1 0.00 0.00 0.00 80 1012.4
20260506040021 9 317 3.2 19.3 0.00 0.00 0.00 80 1012.5
20260506035508 9 70 6.4 19.3 0.00 0.00 0.00 80 1012.5
20260506035008 9 82 8.0 19.3 0.00 0.00 0.00 80 1012.5
20260506034522 9 19 4.8 17.7 0.00 0.00 0.00 80 1012.5
20260506034010 9 340 4.8 17.7 0.00 0.00 0.00 80 1012.3
20260506033509 9 93 4.8 17.7 0.00 0.00 0.00 80 1012.4
20260506033027 9 13 6.4 20.9 0.00 0.00 0.00 79 1012.3
20260506032511 9 322 6.4 24.1 0.00 0.00 0.00 79 1012.2
20260506032007 9 328 8.0 24.1 0.00 0.00 0.00 79 1012.1
20260506031534 9 360 8.0 25.7 0.00 0.00 0.00 79 1012.1
20260506031006 9 171 8.0 25.7 0.00 0.00 0.00 79 1011.8
20260506030506 10 59 9.7 19.3 0.00 0.00 0.00 79 1011.8
20260506030019 10 94 4.8 17.7 0.00 0.00 0.00 79 1011.7
20260506025508 10 13 6.4 19.3 0.00 0.00 0.00 79 1011.7
20260506025006 10 352 8.0 19.3 0.00 0.00 0.00 79 1011.7
20260506024535 10 10 8.0 20.9 0.00 0.00 0.00 79 1011.5
20260506024007 10 329 8.0 20.9 0.00 0.00 0.00 79 1011.5
20260506023503 10 32 3.2 19.3 0.00 0.00 0.00 79 1011.4
20260506023008 10 83 6.4 20.9 0.00 0.00 0.00 78 1011.3
20260506022506 10 34 9.7 20.9 0.00 0.00 0.00 78 1011.0
20260506022008 10 93 9.7 25.7 0.00 0.00 0.00 78 1011.1
20260506021514 10 289 9.7 25.7 0.00 0.00 0.00 78 1011.2
20260506021007 10 352 9.7 25.7 0.00 0.00 0.00 77 1011.0
20260506020505 10 45 6.4 25.7 0.00 0.00 0.00 77 1011.0
20260506020005 10 32 6.4 20.9 0.00 0.00 0.00 77 1010.8
20260506015506 10 340 6.4 20.9 0.00 0.00 0.00 77 1010.7
20260506015004 10 5 8.0 20.9 0.00 0.00 0.00 76 1010.7
20260506014513 10 315 6.4 20.9 0.00 0.00 0.00 76 1010.6
20260506014004 10 20 6.4 19.3 0.00 0.00 0.00 75 1010.6
20260506013504 10 5 6.4 19.3 0.00 0.00 0.00 74 1010.6
20260506013007 10 329 6.4 19.3 0.00 0.00 0.00 74 1010.6
20260506012505 10 352 6.4 19.3 0.00 0.00 0.00 73 1010.4
20260506012007 11 335 6.4 16.1 0.00 0.00 0.00 73 1010.1
20260506011537 11 351 3.2 12.9 0.00 0.00 0.00 73 1010.1
20260506011008 11 37 4.8 20.9 0.00 0.00 0.00 72 1010.1
20260506010513 11 350 3.2 20.9 0.00 0.00 0.00 72 1010.1
20260506010003 11 68 4.8 17.7 0.00 0.00 0.00 72 1009.9
20260506005502 11 23 4.8 17.7 0.00 0.00 0.00 72 1009.9
20260506005003 11 99 6.4 17.7 0.00 0.00 0.00 72 1009.8
20260506004506 11 13 6.4 22.5 0.00 0.00 0.00 72 1009.6
20260506004002 11 37 6.4 22.5 0.00 0.00 0.00 72 1009.5
20260506003503 11 11 6.4 16.1 0.00 0.00 0.00 73 1009.4
20260506003015 11 339 4.8 16.1 0.00 0.00 0.00 72 1009.3
20260506002509 11 40 6.4 16.1 0.00 0.00 0.00 73 1009.3
20260506002011 11 84 3.2 16.1 0.00 0.00 0.00 73 1009.3
20260506001519 11 360 6.4 16.1 0.00 0.00 0.00 73 1009.2
20260506001007 11 348 6.4 17.7 0.00 0.00 0.00 73 1009.2
20260506000511 11 75 8.0 17.7 0.00 0.00 0.00 72 1009.3
20260506000004 11 336 4.8 19.3 0.00 0.00 0.00 73 1009.1
20260505235504 11 22 4.8 19.3 0.00 0.00 0.00 73 1009.3
20260505235003 12 5 6.4 17.7 0.00 0.00 0.00 73 1009.2
20260505234515 11 17 8.0 22.5 0.00 0.00 0.00 73 1009.3
20260505234008 12 86 9.7 22.5 0.00 0.00 0.00 73 1009.1
20260505233504 11 15 4.8 24.1 0.00 0.00 0.00 73 1009.1
20260505233016 11 17 11.3 24.1 0.00 0.00 0.00 73 1009.4
20260505232510 12 294 9.7 22.5 0.00 0.00 0.00 73 1009.3
20260505232009 12 17 6.4 25.7 0.00 0.00 0.00 73 1009.3
20260505231522 12 27 6.4 25.7 0.00 0.00 0.00 72 1009.3
20260505231008 12 74 8.0 25.7 0.00 0.00 0.00 72 1009.0
20260505230502 12 352 8.0 22.5 0.00 0.00 0.00 72 1009.1
20260505230009 12 344 4.8 22.5 0.00 0.00 0.00 73 1009.1
20260505225505 12 338 4.8 20.9 0.00 0.00 0.00 73 1009.1
20260505225003 12 360 4.8 20.9 0.00 0.00 0.00 73 1009.4
20260505224515 12 119 6.4 17.7 0.00 0.00 0.00 73 1009.1
20260505224006 12 352 3.2 27.4 0.00 0.00 0.00 73 1009.0
20260505223506 12 163 8.0 27.4 0.00 0.00 0.00 73 1008.9
20260505223023 12 334 8.0 27.4 0.00 0.00 0.00 73 1008.9
20260505222508 12 98 8.0 20.9 0.00 0.00 0.00 73 1008.8
20260505222008 12 5 6.4 20.9 0.00 0.00 0.00 73 1008.7
20260505221524 12 328 8.0 24.1 0.00 0.00 0.00 73 1008.8
20260505221010 12 338 6.4 24.1 0.00 0.00 0.00 73 1008.7
20260505220502 12 92 4.8 19.3 0.00 0.00 0.00 73 1008.6
20260505220004 12 52 4.8 19.3 0.00 0.00 0.00 74 1008.5
20260505215503 12 350 6.4 24.1 0.00 0.00 0.00 74 1008.3
20260505215006 12 110 4.8 24.1 0.00 0.00 0.00 74 1008.1
20260505214520 12 46 8.0 22.5 0.00 0.00 0.00 74 1008.1
20260505214007 12 352 4.8 22.5 0.00 0.00 0.00 76 1008.0
20260505213509 12 9 3.2 24.1 0.00 0.00 0.00 75 1008.1
20260505213024 12 34 4.8 24.1 0.00 0.00 0.00 76 1008.0
20260505212506 12 349 6.4 19.3 0.00 0.00 0.00 77 1008.2
20260505212013 12 327 6.4 22.5 0.00 0.00 0.00 77 1008.3
20260505211530 12 348 4.8 22.5 0.00 0.00 0.00 77 1008.1
20260505211003 13 13 4.8 16.1 0.00 0.00 0.00 77 1007.7
20260505210502 13 333 4.8 16.1 0.00 0.00 0.00 77 1007.8
20260505210008 13 5 6.4 22.5 0.00 0.00 0.00 77 1007.9
20260505205506 13 69 8.0 17.7 0.00 0.00 0.00 77 1008.1
20260505205008 13 32 9.7 17.7 0.00 0.00 0.00 77 1008.1
20260505204516 13 136 6.4 19.3 0.00 0.00 0.00 77 1007.7
20260505204007 13 46 8.0 19.3 0.00 0.00 0.00 77 1007.3
20260505203508 13 19 8.0 22.5 0.00 0.00 0.00 77 1007.3
20260505203021 13 37 8.0 22.5 0.00 0.00 0.00 77 1007.3
20260505202507 13 34 8.0 19.3 0.00 0.00 0.00 77 1007.4
20260505202010 13 32 6.4 24.1 0.00 0.00 0.00 77 1007.5
20260505201530 13 60 4.8 24.1 0.00 0.00 0.00 76 1007.6
20260505201004 14 59 6.4 22.5 0.00 0.00 0.00 76 1007.6
20260505200503 13 352 6.4 22.5 0.00 0.00 0.00 77 1007.4
20260505200013 13 71 6.4 22.5 0.00 0.00 0.00 76 1007.3
20260505195503 14 9 6.4 20.9 0.00 0.00 0.00 77 1007.3
20260505195006 14 360 11.3 25.7 0.00 0.00 0.00 76 1007.4
20260505194518 14 351 6.4 25.7 0.00 0.00 0.00 76 1007.4
20260505194007 14 11 3.2 22.5 0.00 0.00 0.00 76 1007.4
20260505193509 15 11 9.7 22.5 0.00 0.00 0.00 76 1007.0
20260505193025 14 308 8.0 22.5 0.00 0.00 0.00 76 1006.7
20260505192508 15 9 8.0 22.5 0.00 0.00 0.00 76 1007.2
20260505192014 14 322 6.4 24.1 0.00 0.00 0.00 77 1007.4
20260505191509 15 346 8.0 24.1 0.00 0.00 0.00 76 1007.2
20260505191006 15 352 4.8 19.3 0.00 0.00 0.00 76 1007.1
20260505190505 15 13 4.8 20.9 0.00 0.00 0.00 76 1006.5
20260505190014 15 304 9.7 20.9 0.00 0.00 0.00 75 1006.5
20260505185508 15 96 4.8 19.3 0.00 0.00 0.00 76 1005.9
20260505185009 15 36 4.8 20.9 0.00 0.00 0.00 75 1006.5
20260505184525 15 83 4.8 20.9 0.00 0.00 0.00 77 1006.9
20260505184008 15 62 8.0 20.9 0.00 0.00 0.00 76 1006.9
20260505183511 15 32 8.0 24.1 0.00 0.00 0.00 76 1006.7
20260505183026 15 26 9.7 24.1 0.00 0.00 0.00 77 1006.6
20260505182507 15 338 6.4 17.7 0.00 0.00 0.00 77 1006.3
20260505182012 15 44 6.4 19.3 0.00 0.00 0.00 77 1006.4
20260505181509 15 11 6.4 20.9 0.00 0.00 0.00 77 1006.4
20260505181005 15 344 6.4 29.0 0.00 0.00 0.00 77 1006.3
20260505180507 15 80 8.0 29.0 0.00 0.00 0.00 77 1006.1
20260505180020 16 72 9.7 27.4 0.00 0.00 0.00 76 1005.9
20260505175506 16 34 9.7 24.1 0.00 0.00 0.00 76 1005.4
20260505175009 16 23 9.7 25.7 0.00 0.00 0.00 75 1005.5
20260505174522 16 311 8.0 25.7 0.00 0.00 0.00 75 1005.5
20260505174010 16 323 11.3 25.7 0.00 0.00 0.00 74 1005.5
20260505173510 17 340 8.0 25.7 0.00 0.00 0.00 74 1005.3
20260505173028 17 327 8.0 24.1 0.00 0.00 0.00 74 1005.5
20260505172506 18 43 11.3 24.1 0.00 0.00 0.00 73 1005.4
20260505172003 18 306 6.4 27.4 0.00 0.00 0.00 72 1005.2
20260505171512 20 44 12.9 25.7 0.00 0.00 0.00 72 1005.2
20260505171007 20 333 11.3 25.7 0.00 0.00 0.00 71 1004.9
20260505170508 20 9 9.7 24.1 0.00 0.00 0.00 71 1004.6
20260505170023 21 348 12.9 24.1 0.00 0.00 0.00 70 1004.2
20260505165508 21 288 9.7 25.7 0.00 0.00 0.00 70 1004.1
20260505165009 22 40 11.3 25.7 0.00 0.00 0.00 68 1003.9
20260505164526 23 11 9.7 20.9 0.00 0.00 0.00 64 1003.7
20260505164010 25 311 3.2 9.7 0.00 0.00 0.00 62 1003.4
20260505163514 25 360 1.6 4.8 0.00 0.00 0.00 66 1003.3
20260505163028 25 274 1.6 4.8 0.00 0.00 0.00 67 1003.3
20260505162506 24 255 1.6 9.7 0.00 0.00 0.00 66 1003.1
20260505162006 23 222 0.0 9.7 0.00 0.00 0.00 66 1003.1
20260505161514 23 254 3.2 6.4 0.00 0.00 0.00 66 1003.1
20260505161006 24 253 0.0 4.8 0.00 0.00 0.00 68 1002.9
20260505160510 23 253 1.6 4.8 0.00 0.00 0.00 68 1002.8
20260505153028 22 258 3.2 6.4 0.00 0.00 0.00 71 1002.3
20260505152506 23 254 3.2 6.4 0.00 0.00 0.00 72 1002.4
20260505152008 22 272 3.2 9.7 0.00 0.00 0.00 72 1002.4
20260505151520 23 301 1.6 9.7 0.00 0.00 0.00 71 1002.2
20260505151009 22 292 0.0 6.4 0.00 0.00 0.00 73 1002.3
20260505150507 22 292 0.0 6.4 0.00 0.00 0.00 73 1002.3
20260505140503 22 237 1.6 8.0 0.00 0.00 0.00 75 1001.6
20260505125008 20 224 3.2 11.3 0.00 0.00 0.00 80 1000.9
20260505124518 20 225 1.6 11.3 0.00 0.00 0.00 80 1000.9
20260505124006 20 204 1.6 11.3 0.00 0.00 0.00 80 1000.9
20260505123508 20 210 4.8 16.1 0.00 0.00 0.00 80 1000.7
20260505123029 20 36 4.8 16.1 0.00 0.00 0.00 80 1000.5
20260505122510 20 189 8.0 14.5 0.00 0.00 0.00 80 1000.5
20260505122004 20 198 6.4 11.3 0.00 0.00 0.00 80 1000.3
20260505121510 20 219 4.8 12.9 0.00 0.00 0.00 80 1000.3
20260505121006 20 149 1.6 14.5 0.00 0.00 0.00 80 1000.4
20260505120504 20 113 3.2 12.9 0.00 0.00 0.00 80 1000.3
20260505120009 20 125 3.2 11.3 0.00 0.00 0.00 80 1000.4
20260505115504 20 200 3.2 11.3 0.00 0.00 0.00 80 1000.4
20260505115003 20 38 1.6 9.7 0.00 0.00 0.00 80 1000.4
20260505114517 20 308 1.6 8.0 0.00 0.00 0.00 80 1000.5
20260505114008 20 233 3.2 8.0 0.00 0.00 0.00 80 1000.2
20260505113507 20 180 3.2 11.3 0.00 0.00 0.00 79 1000.1
20260505113023 20 219 1.6 11.3 0.00 0.00 0.00 79 1000.1
20260505112503 20 234 3.2 16.1 0.00 0.00 0.00 79 999.8
20260505112003 20 40 3.2 16.1 0.00 0.00 0.00 78 999.8
20260505111504 20 186 1.6 12.9 0.00 0.00 0.00 78 999.9
20260505111004 21 268 3.2 14.5 0.00 0.00 0.00 78 999.9
20260505110508 21 188 1.6 14.5 0.00 0.00 0.00 78 999.9
20260505102007 21 248 3.2 11.3 0.00 0.00 0.00 77 999.6
20260505101507 21 234 4.8 14.5 0.00 0.00 0.00 77 999.6
20260505101006 21 198 3.2 14.5 0.00 0.00 0.00 76 999.5
20260505100507 21 168 3.2 14.5 0.00 0.00 0.00 76 999.5
20260505100021 21 273 3.2 12.9 0.00 0.00 0.00 76 999.6
20260505095507 21 22 4.8 14.5 0.00 0.00 0.00 76 999.6
20260505095007 21 338 6.4 17.7 0.00 0.00 0.00 76 999.7
20260505094519 21 200 6.4 19.3 0.00 0.00 0.00 76 999.7
20260505094008 21 157 6.4 19.3 0.00 0.00 0.00 76 999.6
20260505093509 21 200 4.8 17.7 0.00 0.00 0.00 75 999.7
20260505093008 21 238 4.8 17.7 0.00 0.00 0.00 75 999.8